Time,TemperatureF,DewpointF,PressureIn,WindDirection,WindDirectionDegrees,WindSpeedMPH,WindSpeedGustMPH,Humidity,HourlyPrecipIn,Conditions,Clouds,dailyrainin,SolarRadiationWatts/m^2,SoftwareType,DateUTC
2013-07-23 00:06:00,75.4,73.0,30.07,SSE,163,0.0,1.0,93,0.00,,,0.00,0,weatherlink.com 1.10,2013-07-23 04:06:00,
2013-07-23 00:21:00,75.3,73.0,30.07,SSE,163,0.0,1.0,92,0.00,,,0.00,0,weatherlink.com 1.10,2013-07-23 04:21:00,
2013-07-23 00:36:00,75.2,73.0,30.06,SSE,163,0.0,1.0,92,0.00,,,0.00,0,weatherlink.com 1.10,2013-07-23 04:36:00,
2013-07-23 00:51:00,75.1,73.0,30.06,SSE,163,0.0,2.0,92,0.00,,,0.00,0,weatherlink.com 1.10,2013-07-23 04:51:00,
2013-07-23 01:06:00,75.1,72.0,30.05,SSE,163,0.0,2.0,91,0.00,,,0.00,0,weatherlink.com 1.10,2013-07-23 05:06:00,
2013-07-23 01:21:00,75.0,72.0,30.05,SSE,163,1.0,3.0,91,0.00,,,0.00,0,weatherlink.com 1.10,2013-07-23 05:21:00,
2013-07-23 01:36:00,74.9,72.0,30.05,SSE,163,0.0,3.0,91,0.00,,,0.00,0,weatherlink.com 1.10,2013-07-23 05:36:00,
2013-07-23 01:51:00,74.8,72.0,30.05,SSE,163,1.0,2.0,91,0.00,,,0.00,0,weatherlink.com 1.10,2013-07-23 05:51:00,
2013-07-23 02:06:00,74.8,72.0,30.04,SSE,164,0.0,5.0,92,0.00,,,0.00,0,weatherlink.com 1.10,2013-07-23 06:06:00,
2013-07-23 02:21:00,75.0,73.0,30.04,SSE,163,0.0,5.0,92,0.00,,,0.00,0,weatherlink.com 1.10,2013-07-23 06:21:00,
2013-07-23 02:36:00,75.1,73.0,30.04,SSE,166,0.0,5.0,93,0.00,,,0.00,0,weatherlink.com 1.10,2013-07-23 06:36:00,
2013-07-23 02:51:00,75.2,73.0,30.04,SSE,167,0.0,1.0,93,0.00,,,0.00,0,weatherlink.com 1.10,2013-07-23 06:51:00,
2013-07-23 03:06:00,75.4,73.0,30.03,SSE,156,0.0,3.0,93,0.00,,,0.00,0,weatherlink.com 1.10,2013-07-23 07:06:00,
2013-07-23 03:21:00,75.4,73.0,30.03,SSE,157,0.0,4.0,93,0.00,,,0.00,0,weatherlink.com 1.10,2013-07-23 07:21:00,
2013-07-23 03:36:00,75.3,73.0,30.02,SSE,157,0.0,4.0,93,0.00,,,0.00,0,weatherlink.com 1.10,2013-07-23 07:36:00,
2013-07-23 03:51:00,75.2,73.0,30.02,SSE,156,0.0,3.0,93,0.00,,,0.00,0,weatherlink.com 1.10,2013-07-23 07:51:00,
2013-07-23 04:06:00,75.1,73.0,30.02,SSE,157,0.0,3.0,93,0.00,,,0.00,0,weatherlink.com 1.10,2013-07-23 08:06:00,
2013-07-23 04:21:00,75.0,73.0,30.02,SSE,157,0.0,1.0,93,0.00,,,0.00,0,weatherlink.com 1.10,2013-07-23 08:21:00,
2013-07-23 04:36:00,74.8,73.0,30.02,SSE,157,0.0,1.0,93,0.00,,,0.00,0,weatherlink.com 1.10,2013-07-23 08:36:00,
2013-07-23 04:51:00,74.8,73.0,30.02,SSE,157,0.0,1.0,93,0.00,,,0.00,0,weatherlink.com 1.10,2013-07-23 08:51:00,
2013-07-23 05:06:00,74.9,73.0,30.02,SSE,159,2.0,2.0,94,0.00,,,0.00,0,weatherlink.com 1.10,2013-07-23 09:06:00,
2013-07-23 05:21:00,74.9,73.0,30.02,SSE,159,0.0,1.0,93,0.00,,,0.00,0,weatherlink.com 1.10,2013-07-23 09:21:00,
2013-07-23 05:36:00,74.9,73.0,30.02,SSE,159,0.0,1.0,93,0.00,,,0.00,0,weatherlink.com 1.10,2013-07-23 09:36:00,
2013-07-23 05:51:00,74.8,73.0,30.02,SSE,159,0.0,1.0,94,0.00,,,0.00,0,weatherlink.com 1.10,2013-07-23 09:51:00,
2013-07-23 06:06:00,74.7,73.0,30.02,SSE,159,0.0,1.0,94,0.01,,,0.01,0,weatherlink.com 1.10,2013-07-23 10:06:00,
2013-07-23 06:21:00,74.8,73.0,30.02,SSE,159,0.0,3.0,94,0.01,,,0.01,0,weatherlink.com 1.10,2013-07-23 10:21:00,
2013-07-23 06:36:00,74.8,73.0,30.03,SSE,159,0.0,2.0,94,0.01,,,0.01,0,weatherlink.com 1.10,2013-07-23 10:36:00,
2013-07-23 06:51:00,74.8,73.0,30.04,SSE,159,0.0,0.0,94,0.01,,,0.01,7,weatherlink.com 1.10,2013-07-23 10:51:00,
2013-07-23 07:06:00,74.9,73.0,30.03,SSE,159,0.0,1.0,94,0.00,,,0.01,18,weatherlink.com 1.10,2013-07-23 11:06:00,
2013-07-23 07:21:00,75.0,73.0,30.04,SSE,159,0.0,3.0,94,0.00,,,0.01,23,weatherlink.com 1.10,2013-07-23 11:21:00,
2013-07-23 07:36:00,75.3,74.0,30.04,SSE,158,0.0,1.0,94,0.00,,,0.01,37,weatherlink.com 1.10,2013-07-23 11:36:00,
2013-07-23 07:51:00,75.8,74.0,30.04,SSE,159,0.0,3.0,95,0.00,,,0.01,137,weatherlink.com 1.10,2013-07-23 11:51:00,
2013-07-23 08:06:00,76.7,75.0,30.05,SSE,159,0.0,1.0,95,0.00,,,0.01,178,weatherlink.com 1.10,2013-07-23 12:06:00,
2013-07-23 08:21:00,77.6,76.0,30.05,SW,236,0.0,5.0,94,0.00,,,0.01,234,weatherlink.com 1.10,2013-07-23 12:21:00,
2013-07-23 08:36:00,78.4,77.0,30.05,WSW,252,0.0,6.0,94,0.00,,,0.01,287,weatherlink.com 1.10,2013-07-23 12:36:00,
2013-07-23 08:51:00,79.4,77.0,30.06,SW,229,0.0,5.0,93,0.00,,,0.01,343,weatherlink.com 1.10,2013-07-23 12:51:00,
2013-07-23 09:06:00,80.5,77.0,30.06,WSW,240,7.0,8.0,89,0.00,,,0.01,406,weatherlink.com 1.10,2013-07-23 13:06:00,
2013-07-23 09:21:00,81.4,77.0,30.06,SW,234,6.0,7.0,87,0.00,,,0.01,454,weatherlink.com 1.10,2013-07-23 13:21:00,
2013-07-23 09:36:00,82.3,77.0,30.05,WSW,246,1.0,8.0,83,0.00,,,0.01,522,weatherlink.com 1.10,2013-07-23 13:36:00,
2013-07-23 09:52:00,83.2,76.0,30.06,SW,229,0.0,8.0,80,0.00,,,0.01,455,weatherlink.com 1.10,2013-07-23 13:52:00,
2013-07-23 10:07:00,83.9,76.0,30.05,West,261,0.0,11.0,77,0.00,,,0.01,323,weatherlink.com 1.10,2013-07-23 14:07:00,
2013-07-23 10:22:00,84.9,76.0,30.05,SSW,205,0.0,8.0,75,0.00,,,0.01,309,weatherlink.com 1.10,2013-07-23 14:22:00,
2013-07-23 10:37:00,85.2,75.0,30.04,SW,215,2.0,11.0,72,0.00,,,0.01,390,weatherlink.com 1.10,2013-07-23 14:37:00,
2013-07-23 10:52:00,85.3,75.0,30.04,SW,232,0.0,12.0,71,0.00,,,0.01,360,weatherlink.com 1.10,2013-07-23 14:52:00,
2013-07-23 11:07:00,85.0,75.0,30.04,WSW,244,4.0,11.0,71,0.00,,,0.01,330,weatherlink.com 1.10,2013-07-23 15:07:00,
2013-07-23 11:22:00,85.1,75.0,30.05,West,268,3.0,10.0,72,0.00,,,0.01,455,weatherlink.com 1.10,2013-07-23 15:22:00,
2013-07-23 11:37:00,85.2,74.0,30.05,SW,224,3.0,13.0,70,0.00,,,0.01,206,weatherlink.com 1.10,2013-07-23 15:37:00,
2013-07-23 11:52:00,82.1,73.0,30.05,West,276,2.0,7.0,73,0.00,,,0.01,563,weatherlink.com 1.10,2013-07-23 15:52:00,
2013-07-23 12:07:00,80.2,73.0,30.05,North,11,5.0,6.0,79,0.00,,,0.01,496,weatherlink.com 1.10,2013-07-23 16:07:00,
2013-07-23 12:22:00,80.2,74.0,30.05,SW,227,0.0,10.0,80,0.00,,,0.01,693,weatherlink.com 1.10,2013-07-23 16:22:00,
2013-07-23 12:37:00,81.5,74.0,30.04,West,268,2.0,8.0,77,0.00,,,0.01,454,weatherlink.com 1.10,2013-07-23 16:37:00,
2013-07-23 12:52:00,81.8,74.0,30.04,SW,225,8.0,12.0,77,0.00,,,0.01,404,weatherlink.com 1.10,2013-07-23 16:52:00,
2013-07-23 13:07:00,82.6,74.0,30.04,WSW,244,1.0,7.0,75,0.00,,,0.01,410,weatherlink.com 1.10,2013-07-23 17:07:00,
2013-07-23 13:22:00,83.5,74.0,30.04,WSW,252,0.0,7.0,72,0.00,,,0.01,468,weatherlink.com 1.10,2013-07-23 17:22:00,
2013-07-23 13:37:00,83.6,73.0,30.03,SW,225,0.0,6.0,70,0.00,,,0.01,385,weatherlink.com 1.10,2013-07-23 17:37:00,
2013-07-23 14:22:00,84.5,73.0,30.02,SW,236,5.0,15.0,69,0.00,,,0.01,399,weatherlink.com 1.10,2013-07-23 18:22:00,
2013-07-23 14:37:00,83.8,73.0,30.01,WSW,239,3.0,14.0,71,0.00,,,0.01,322,weatherlink.com 1.10,2013-07-23 18:37:00,
2013-07-23 14:52:00,83.7,74.0,30.01,SW,236,4.0,7.0,73,0.00,,,0.01,279,weatherlink.com 1.10,2013-07-23 18:52:00,
2013-07-23 15:07:00,83.6,75.0,30.00,West,275,2.0,8.0,74,0.00,,,0.01,294,weatherlink.com 1.10,2013-07-23 19:07:00,
2013-07-23 15:37:00,82.4,74.0,30.00,WNW,303,0.0,2.0,76,0.00,,,0.01,227,weatherlink.com 1.10,2013-07-23 19:37:00,
2013-07-23 15:52:00,82.0,75.0,30.00,SW,234,0.0,4.0,78,0.00,,,0.01,232,weatherlink.com 1.10,2013-07-23 19:52:00,
2013-07-23 16:07:00,81.7,74.0,29.99,WSW,246,2.0,9.0,78,0.00,,,0.01,165,weatherlink.com 1.10,2013-07-23 20:07:00,
2013-07-23 16:22:00,81.3,75.0,29.98,WSW,254,0.0,9.0,80,0.00,,,0.01,141,weatherlink.com 1.10,2013-07-23 20:22:00,
2013-07-23 16:37:00,81.0,74.0,29.98,SW,236,2.0,6.0,79,0.00,,,0.01,130,weatherlink.com 1.10,2013-07-23 20:37:00,
2013-07-23 17:07:00,81.5,74.0,29.98,West,267,0.0,11.0,77,0.00,,,0.01,197,weatherlink.com 1.10,2013-07-23 21:07:00,
2013-07-23 17:22:00,81.5,73.0,29.98,WSW,247,4.0,10.0,75,0.00,,,0.01,160,weatherlink.com 1.10,2013-07-23 21:22:00,
2013-07-23 17:37:00,81.3,73.0,29.98,WSW,256,2.0,13.0,77,0.00,,,0.01,137,weatherlink.com 1.10,2013-07-23 21:37:00,
2013-07-23 17:52:00,81.0,74.0,29.98,West,259,3.0,11.0,78,0.00,,,0.01,109,weatherlink.com 1.10,2013-07-23 21:52:00,
2013-07-23 18:07:00,80.8,73.0,29.98,WSW,247,2.0,8.0,77,0.00,,,0.01,121,weatherlink.com 1.10,2013-07-23 22:07:00,
2013-07-23 18:22:00,80.7,73.0,29.96,WSW,250,4.0,11.0,77,0.00,,,0.01,123,weatherlink.com 1.10,2013-07-23 22:22:00,
2013-07-23 18:37:00,80.3,73.0,29.96,WSW,257,5.0,11.0,77,0.00,,,0.01,84,weatherlink.com 1.10,2013-07-23 22:37:00,
2013-07-23 18:52:00,80.1,73.0,29.95,SW,224,2.0,6.0,78,0.00,,,0.01,65,weatherlink.com 1.10,2013-07-23 22:52:00,
2013-07-23 19:07:00,79.8,73.0,29.93,SSW,194,0.0,7.0,79,0.00,,,0.01,53,weatherlink.com 1.10,2013-07-23 23:07:00,
2013-07-23 19:22:00,79.6,73.0,29.92,WSW,244,0.0,6.0,80,0.00,,,0.01,40,weatherlink.com 1.10,2013-07-23 23:22:00,
2013-07-23 19:37:00,79.4,73.0,29.93,WSW,238,1.0,6.0,81,0.00,,,0.01,26,weatherlink.com 1.10,2013-07-23 23:37:00,
2013-07-23 20:07:00,78.9,73.0,29.93,WSW,241,0.0,6.0,82,0.00,,,0.01,5,weatherlink.com 1.10,2013-07-24 00:07:00,